| time (UTC) | temp F | wind direction | speed knots | gust knots | rain 1hr in | rain 24hr in | rain mn in | humidity % | barometer mb |
| 20260504174557 | 71 | 360 | 2.6 | 10.4 | 0.00 | 0.00 | 0.00 | 47 | 1013.0 |
| 20260504174056 | 71 | 360 | 3.5 | 10.4 | 0.00 | 0.00 | 0.00 | 48 | 1013.1 |
| 20260504173556 | 70 | 360 | 6.1 | 13.9 | 0.00 | 0.00 | 0.00 | 48 | 1013.1 |
| 20260504173107 | 71 | 360 | 5.2 | 12.2 | 0.00 | 0.00 | 0.00 | 48 | 1013.3 |
| 20260504172554 | 71 | 360 | 3.5 | 13.0 | 0.00 | 0.00 | 0.00 | 48 | 1013.3 |
| 20260504172053 | 71 | 360 | 4.3 | 12.2 | 0.00 | 0.00 | 0.00 | 48 | 1013.5 |
| 20260504171559 | 69 | 360 | 3.5 | 13.0 | 0.00 | 0.00 | 0.00 | 52 | 1013.6 |
| 20260504171053 | 68 | 360 | 4.3 | 13.0 | 0.00 | 0.00 | 0.00 | 51 | 1013.9 |
| 20260504170551 | 68 | 360 | 5.2 | 11.3 | 0.00 | 0.00 | 0.00 | 52 | 1013.9 |
| 20260504151032 | 63 | 360 | 0.9 | 9.6 | 0.00 | 0.00 | 0.00 | 57 | 1015.7 |
| 20260504150533 | 63 | 360 | 3.5 | 9.6 | 0.00 | 0.00 | 0.00 | 57 | 1015.7 |
| 20260504141026 | 63 | 360 | 2.6 | 10.4 | 0.00 | 0.00 | 0.00 | 53 | 1015.6 |
| 20260504140525 | 63 | 360 | 3.5 | 8.7 | 0.00 | 0.00 | 0.00 | 53 | 1015.7 |
| 20260504130513 | 57 | 360 | 1.7 | 7.0 | 0.00 | 0.00 | 0.00 | 63 | 1015.7 |
| 20260504110553 | 43 | 360 | 0.0 | 0.0 | 0.00 | 0.00 | 0.00 | 94 | 1016.1 |
| 20260504100547 | 44 | 360 | 0.0 | 0.9 | 0.00 | 0.00 | 0.00 | 93 | 1016.3 |
| 20260504081535 | 45 | 360 | 0.0 | 0.0 | 0.00 | 0.00 | 0.00 | 92 | 1017.2 |
| 20260504081033 | 45 | 360 | 0.0 | 0.0 | 0.00 | 0.00 | 0.00 | 92 | 1017.1 |
| 20260504080537 | 46 | 360 | 0.0 | 0.0 | 0.00 | 0.00 | 0.00 | 92 | 1017.3 |
| 20260504050516 | 47 | 360 | 0.0 | 0.0 | 0.00 | 0.00 | 0.00 | 82 | 1017.9 |
| 20260504050013 | 47 | 360 | 0.0 | 0.0 | 0.00 | 0.00 | 0.00 | 82 | 1017.7 |
| 20260504045512 | 47 | 360 | 0.0 | 0.0 | 0.00 | 0.00 | 0.00 | 81 | 1017.7 |
| 20260504045013 | 47 | 360 | 0.0 | 0.0 | 0.00 | 0.00 | 0.00 | 80 | 1017.7 |
| 20260504044517 | 47 | 360 | 0.0 | 0.0 | 0.00 | 0.00 | 0.00 | 80 | 1017.8 |
| 20260504044011 | 47 | 360 | 0.0 | 0.0 | 0.00 | 0.00 | 0.00 | 80 | 1017.8 |
| 20260504043511 | 47 | 360 | 0.0 | 0.0 | 0.00 | 0.00 | 0.00 | 80 | 1017.9 |
| 20260504043110 | 47 | 360 | 0.0 | 0.9 | 0.00 | 0.00 | 0.00 | 81 | 1017.9 |
| 20260504042508 | 47 | 360 | 0.0 | 0.9 | 0.00 | 0.00 | 0.00 | 80 | 1017.8 |
| 20260504042008 | 47 | 360 | 0.0 | 0.0 | 0.00 | 0.00 | 0.00 | 79 | 1017.9 |
| 20260504041528 | 47 | 360 | 0.0 | 0.0 | 0.00 | 0.00 | 0.00 | 79 | 1017.9 |
| 20260504041007 | 47 | 360 | 0.0 | 0.0 | 0.00 | 0.00 | 0.00 | 80 | 1017.9 |
| 20260504040509 | 47 | 360 | 0.0 | 0.0 | 0.00 | 0.00 | 0.00 | 79 | 1017.9 |
| 20260504040006 | 47 | 360 | 0.0 | 0.0 | 0.00 | 0.00 | 0.00 | 79 | 1017.9 |
| 20260504035506 | 48 | 360 | 0.0 | 0.0 | 0.00 | 0.00 | 0.00 | 78 | 1017.9 |
| 20260504035006 | 48 | 360 | 0.0 | 0.9 | 0.00 | 0.00 | 0.00 | 78 | 1017.9 |
| 20260504034506 | 48 | 360 | 0.0 | 0.9 | 0.00 | 0.00 | 0.00 | 78 | 1017.8 |
| 20260504034005 | 48 | 360 | 0.0 | 0.9 | 0.00 | 0.00 | 0.00 | 78 | 1017.8 |
| 20260504033505 | 48 | 360 | 0.0 | 0.0 | 0.00 | 0.00 | 0.00 | 77 | 1017.9 |
| 20260504033005 | 48 | 360 | 0.0 | 0.0 | 0.00 | 0.00 | 0.00 | 77 | 1017.8 |
| 20260504032505 | 49 | 360 | 0.0 | 0.0 | 0.00 | 0.00 | 0.00 | 77 | 1017.9 |
| 20260504032005 | 49 | 360 | 0.0 | 0.9 | 0.00 | 0.00 | 0.00 | 77 | 1018.0 |
| 20260504031505 | 49 | 360 | 0.0 | 0.9 | 0.00 | 0.00 | 0.00 | 76 | 1017.9 |
| 20260504031004 | 49 | 360 | 0.0 | 0.0 | 0.00 | 0.00 | 0.00 | 75 | 1017.9 |
| 20260504030504 | 49 | 360 | 0.0 | 0.9 | 0.00 | 0.00 | 0.00 | 75 | 1017.9 |
| 20260504030004 | 49 | 360 | 0.0 | 0.9 | 0.00 | 0.00 | 0.00 | 74 | 1018.0 |
| 20260504025504 | 49 | 360 | 0.0 | 0.9 | 0.00 | 0.00 | 0.00 | 75 | 1017.9 |
| 20260504025004 | 50 | 360 | 0.0 | 1.7 | 0.00 | 0.00 | 0.00 | 74 | 1017.9 |
| 20260504024505 | 50 | 360 | 0.9 | 1.7 | 0.00 | 0.00 | 0.00 | 74 | 1018.0 |
| 20260504024003 | 49 | 360 | 0.0 | 0.0 | 0.00 | 0.00 | 0.00 | 73 | 1017.9 |
| 20260504023504 | 50 | 360 | 0.0 | 0.0 | 0.00 | 0.00 | 0.00 | 74 | 1018.0 |
| 20260504023004 | 50 | 360 | 0.0 | 0.9 | 0.00 | 0.00 | 0.00 | 74 | 1018.0 |
| 20260504022504 | 50 | 360 | 0.0 | 1.7 | 0.00 | 0.00 | 0.00 | 73 | 1018.0 |
| 20260504022004 | 50 | 360 | 0.0 | 1.7 | 0.00 | 0.00 | 0.00 | 73 | 1017.9 |
| 20260504021504 | 50 | 360 | 0.0 | 1.7 | 0.00 | 0.00 | 0.00 | 72 | 1017.9 |
| 20260504021003 | 50 | 360 | 0.9 | 1.7 | 0.00 | 0.00 | 0.00 | 71 | 1018.0 |
| 20260504020503 | 50 | 360 | 0.9 | 1.7 | 0.00 | 0.00 | 0.00 | 71 | 1017.9 |
| 20260504020006 | 50 | 360 | 0.9 | 1.7 | 0.00 | 0.00 | 0.00 | 71 | 1017.9 |
| 20260504015503 | 50 | 360 | 0.0 | 1.7 | 0.00 | 0.00 | 0.00 | 71 | 1017.9 |
| 20260504015002 | 51 | 360 | 0.9 | 1.7 | 0.00 | 0.00 | 0.00 | 71 | 1017.9 |
| 20260504014503 | 51 | 360 | 0.9 | 1.7 | 0.00 | 0.00 | 0.00 | 70 | 1017.9 |
| 20260504014004 | 51 | 360 | 0.9 | 1.7 | 0.00 | 0.00 | 0.00 | 67 | 1017.8 |
| 20260504013502 | 52 | 360 | 0.0 | 1.7 | 0.00 | 0.00 | 0.00 | 66 | 1017.9 |
| 20260504013001 | 52 | 360 | 0.0 | 1.7 | 0.00 | 0.00 | 0.00 | 67 | 1018.0 |
| 20260504012503 | 52 | 360 | 0.0 | 1.7 | 0.00 | 0.00 | 0.00 | 66 | 1017.9 |
| 20260504012002 | 53 | 360 | 0.0 | 1.7 | 0.00 | 0.00 | 0.00 | 63 | 1017.9 |
| 20260504011501 | 53 | 360 | 0.9 | 1.7 | 0.00 | 0.00 | 0.00 | 62 | 1018.0 |
| 20260504011001 | 53 | 360 | 0.9 | 1.7 | 0.00 | 0.00 | 0.00 | 61 | 1018.0 |
| 20260504010501 | 53 | 360 | 0.9 | 1.7 | 0.00 | 0.00 | 0.00 | 59 | 1018.0 |
| 20260504010001 | 54 | 360 | 0.9 | 2.6 | 0.00 | 0.00 | 0.00 | 56 | 1018.1 |
| 20260504005600 | 54 | 360 | 0.9 | 2.6 | 0.00 | 0.00 | 0.00 | 53 | 1018.1 |
| 20260504005100 | 54 | 360 | 0.9 | 1.7 | 0.00 | 0.00 | 0.00 | 53 | 1018.1 |
| 20260504004600 | 54 | 360 | 0.0 | 1.7 | 0.00 | 0.00 | 0.00 | 52 | 1018.2 |
| 20260504004059 | 54 | 360 | 0.9 | 1.7 | 0.00 | 0.00 | 0.00 | 52 | 1018.2 |
| 20260504003601 | 55 | 360 | 0.9 | 1.7 | 0.00 | 0.00 | 0.00 | 53 | 1017.9 |
| 20260504003059 | 55 | 360 | 0.0 | 1.7 | 0.00 | 0.00 | 0.00 | 50 | 1017.9 |
| 20260504002600 | 55 | 360 | 0.9 | 1.7 | 0.00 | 0.00 | 0.00 | 48 | 1017.8 |
| 20260504002059 | 56 | 360 | 0.9 | 2.6 | 0.00 | 0.00 | 0.00 | 49 | 1017.5 |
| 20260504001600 | 56 | 360 | 0.9 | 2.6 | 0.00 | 0.00 | 0.00 | 48 | 1017.6 |
| 20260504001059 | 56 | 360 | 0.9 | 1.7 | 0.00 | 0.00 | 0.00 | 53 | 1017.8 |
| 20260504000558 | 56 | 360 | 0.0 | 1.7 | 0.00 | 0.00 | 0.00 | 49 | 1017.6 |
| 20260504000107 | 56 | 360 | 0.0 | 1.7 | 0.00 | 0.00 | 0.00 | 49 | 1017.7 |
| 20260503235559 | 57 | 360 | 0.9 | 1.7 | 0.00 | 0.00 | 0.00 | 46 | 1017.6 |
| 20260503235058 | 58 | 360 | 0.0 | 1.7 | 0.00 | 0.00 | 0.00 | 44 | 1017.6 |
| 20260503234558 | 58 | 360 | 0.0 | 1.7 | 0.00 | 0.00 | 0.00 | 39 | 1017.7 |
| 20260503234056 | 59 | 360 | 0.0 | 2.6 | 0.00 | 0.00 | 0.00 | 38 | 1017.8 |
| 20260503233556 | 59 | 360 | 0.0 | 2.6 | 0.00 | 0.00 | 0.00 | 38 | 1017.9 |
| 20260503233055 | 59 | 360 | 0.0 | 3.5 | 0.00 | 0.00 | 0.00 | 40 | 1017.9 |
| 20260503232555 | 59 | 360 | 0.9 | 3.5 | 0.00 | 0.00 | 0.00 | 36 | 1017.9 |
| 20260503232055 | 59 | 360 | 0.0 | 3.5 | 0.00 | 0.00 | 0.00 | 37 | 1017.8 |
| 20260503231554 | 59 | 360 | 1.7 | 3.5 | 0.00 | 0.00 | 0.00 | 36 | 1017.8 |
| 20260503231056 | 59 | 360 | 0.9 | 4.3 | 0.00 | 0.00 | 0.00 | 37 | 1018.0 |
| 20260503230557 | 59 | 360 | 0.9 | 3.5 | 0.00 | 0.00 | 0.00 | 37 | 1017.9 |
| 20260503230053 | 60 | 360 | 1.7 | 3.5 | 0.00 | 0.00 | 0.00 | 37 | 1018.1 |
| 20260503225552 | 60 | 360 | 0.9 | 3.5 | 0.00 | 0.00 | 0.00 | 35 | 1018.1 |
| 20260503225053 | 60 | 360 | 0.9 | 5.2 | 0.00 | 0.00 | 0.00 | 34 | 1018.0 |
| 20260503224600 | 61 | 360 | 1.7 | 5.2 | 0.00 | 0.00 | 0.00 | 35 | 1018.1 |
| 20260503224052 | 60 | 360 | 0.9 | 3.5 | 0.00 | 0.00 | 0.00 | 34 | 1018.1 |
| 20260503223552 | 60 | 360 | 1.7 | 3.5 | 0.00 | 0.00 | 0.00 | 34 | 1018.3 |
| 20260503223051 | 61 | 360 | 1.7 | 7.0 | 0.00 | 0.00 | 0.00 | 35 | 1018.2 |
| 20260503222551 | 61 | 360 | 1.7 | 7.0 | 0.00 | 0.00 | 0.00 | 34 | 1018.3 |
| 20260503222053 | 61 | 360 | 1.7 | 5.2 | 0.00 | 0.00 | 0.00 | 37 | 1018.3 |
| 20260503221600 | 61 | 360 | 2.6 | 5.2 | 0.00 | 0.00 | 0.00 | 36 | 1018.2 |
| 20260503221053 | 61 | 360 | 1.7 | 7.0 | 0.00 | 0.00 | 0.00 | 35 | 1018.2 |
| 20260503220551 | 61 | 360 | 1.7 | 5.2 | 0.00 | 0.00 | 0.00 | 34 | 1018.3 |
| 20260503220051 | 61 | 360 | 2.6 | 5.2 | 0.00 | 0.00 | 0.00 | 34 | 1018.3 |
| 20260503215550 | 61 | 360 | 0.9 | 7.0 | 0.00 | 0.00 | 0.00 | 33 | 1018.3 |
| 20260503215051 | 61 | 360 | 2.6 | 7.0 | 0.00 | 0.00 | 0.00 | 34 | 1018.5 |
| 20260503214550 | 62 | 360 | 2.6 | 5.2 | 0.00 | 0.00 | 0.00 | 34 | 1018.4 |
| 20260503214149 | 62 | 360 | 2.6 | 5.2 | 0.00 | 0.00 | 0.00 | 32 | 1018.2 |
| 20260503213550 | 61 | 360 | 0.9 | 4.3 | 0.00 | 0.00 | 0.00 | 34 | 1018.2 |
| 20260503213049 | 61 | 360 | 2.6 | 7.0 | 0.00 | 0.00 | 0.00 | 33 | 1018.3 |
| 20260503212549 | 61 | 360 | 2.6 | 7.0 | 0.00 | 0.00 | 0.00 | 34 | 1018.2 |
| 20260503212049 | 61 | 360 | 1.7 | 4.3 | 0.00 | 0.00 | 0.00 | 33 | 1018.3 |
| 20260503211550 | 62 | 360 | 0.9 | 4.3 | 0.00 | 0.00 | 0.00 | 33 | 1018.1 |
| 20260503211047 | 61 | 360 | 1.7 | 10.4 | 0.00 | 0.00 | 0.00 | 33 | 1018.3 |
| 20260503210547 | 61 | 360 | 1.7 | 10.4 | 0.00 | 0.00 | 0.00 | 34 | 1018.3 |
| 20260503210047 | 61 | 360 | 2.6 | 4.3 | 0.00 | 0.00 | 0.00 | 34 | 1018.3 |
| 20260503205546 | 61 | 360 | 0.9 | 5.2 | 0.00 | 0.00 | 0.00 | 32 | 1018.4 |
| 20260503205047 | 63 | 360 | 0.9 | 4.3 | 0.00 | 0.00 | 0.00 | 34 | 1018.5 |
| 20260503204601 | 61 | 360 | 1.7 | 4.3 | 0.00 | 0.00 | 0.00 | 32 | 1018.5 |
| 20260503204044 | 61 | 360 | 1.7 | 4.3 | 0.00 | 0.00 | 0.00 | 33 | 1018.5 |
| 20260503203544 | 61 | 360 | 2.6 | 5.2 | 0.00 | 0.00 | 0.00 | 35 | 1018.5 |
| 20260503203045 | 61 | 360 | 2.6 | 5.2 | 0.00 | 0.00 | 0.00 | 33 | 1018.7 |
| 20260503202545 | 61 | 360 | 1.7 | 4.3 | 0.00 | 0.00 | 0.00 | 35 | 1018.8 |
| 20260503202043 | 61 | 360 | 1.7 | 4.3 | 0.00 | 0.00 | 0.00 | 36 | 1019.0 |
| 20260503201541 | 61 | 360 | 1.7 | 4.3 | 0.00 | 0.00 | 0.00 | 33 | 1019.1 |
| 20260503201040 | 61 | 360 | 2.6 | 4.3 | 0.00 | 0.00 | 0.00 | 33 | 1019.3 |
| 20260503200540 | 62 | 360 | 2.6 | 4.3 | 0.00 | 0.00 | 0.00 | 32 | 1019.2 |
| 20260503200039 | 63 | 360 | 1.7 | 4.3 | 0.00 | 0.00 | 0.00 | 35 | 1019.4 |
| 20260503195538 | 61 | 360 | 1.7 | 7.0 | 0.00 | 0.00 | 0.00 | 31 | 1019.4 |
| 20260503195037 | 61 | 360 | 3.5 | 8.7 | 0.00 | 0.00 | 0.00 | 33 | 1019.7 |
| 20260503194541 | 62 | 360 | 4.3 | 8.7 | 0.00 | 0.00 | 0.00 | 35 | 1019.8 |
| 20260503194036 | 61 | 360 | 3.5 | 7.8 | 0.00 | 0.00 | 0.00 | 35 | 1019.7 |
| 20260503193536 | 60 | 360 | 0.9 | 7.0 | 0.00 | 0.00 | 0.00 | 34 | 1019.8 |
| 20260503193044 | 60 | 360 | 3.5 | 7.0 | 0.00 | 0.00 | 0.00 | 32 | 1020.0 |
| 20260503192534 | 61 | 360 | 2.6 | 7.8 | 0.00 | 0.00 | 0.00 | 34 | 1020.1 |
| 20260503192035 | 61 | 360 | 4.3 | 7.8 | 0.00 | 0.00 | 0.00 | 34 | 1020.3 |
| 20260503191601 | 60 | 360 | 1.7 | 4.3 | 0.00 | 0.00 | 0.00 | 33 | 1020.3 |
| 20260503191035 | 61 | 360 | 0.9 | 7.0 | 0.00 | 0.00 | 0.00 | 34 | 1020.3 |
| 20260503190534 | 60 | 360 | 2.6 | 7.0 | 0.00 | 0.00 | 0.00 | 33 | 1020.4 |
| 20260503190037 | 61 | 360 | 2.6 | 7.0 | 0.00 | 0.00 | 0.00 | 34 | 1020.6 |
| 20260503185532 | 61 | 360 | 0.9 | 4.3 | 0.00 | 0.00 | 0.00 | 31 | 1020.5 |
| 20260503185031 | 62 | 360 | 1.7 | 7.0 | 0.00 | 0.00 | 0.00 | 34 | 1020.6 |
| 20260503184536 | 59 | 360 | 2.6 | 7.0 | 0.00 | 0.00 | 0.00 | 34 | 1020.7 |
| 20260503184033 | 58 | 360 | 2.6 | 7.8 | 0.00 | 0.00 | 0.00 | 34 | 1020.6 |
| 20260503183534 | 59 | 360 | 2.6 | 7.8 | 0.00 | 0.00 | 0.00 | 35 | 1020.9 |
| 20260503183030 | 59 | 360 | 1.7 | 7.0 | 0.00 | 0.00 | 0.00 | 35 | 1020.8 |
| 20260503182531 | 60 | 360 | 3.5 | 7.0 | 0.00 | 0.00 | 0.00 | 37 | 1020.8 |
| 20260503182029 | 59 | 360 | 1.7 | 4.3 | 0.00 | 0.00 | 0.00 | 38 | 1020.7 |
| 20260503181544 | 58 | 360 | 0.9 | 3.5 | 0.00 | 0.00 | 0.00 | 36 | 1020.9 |
| 20260503181029 | 59 | 360 | 1.7 | 7.0 | 0.00 | 0.00 | 0.00 | 37 | 1020.9 |
| 20260503180529 | 59 | 360 | 2.6 | 7.0 | 0.00 | 0.00 | 0.00 | 37 | 1021.0 |
| 20260503180030 | 58 | 360 | 0.9 | 5.2 | 0.00 | 0.00 | 0.00 | 35 | 1021.1 |
| 20260503175528 | 58 | 360 | 1.7 | 8.7 | 0.00 | 0.00 | 0.00 | 37 | 1021.3 |
| 20260503175032 | 57 | 360 | 2.6 | 7.0 | 0.00 | 0.00 | 0.00 | 38 | 1021.2 |